Location: *
(52.0867°N, 5.1300°E)
Time: 14:03:22
(UTC+00:00)

Daily predictions for brighter satellites

Satellite Brightness Start Highest point End
(mag) Time Altitude Azimuth Time Altitude Azimuth Time Altitude Azimuth
Cosmos 1833 Rocket 2.7 16:53:29 10° NNW 16:59:08 72° ENE 17:04:45 10° SE
Unknown 3.7 16:55:57 10° W 17:00:07 78° N 17:04:16 10° E
ATLAS 3B R/B 4.2 16:58:32 10° SE 17:01:02 12° ESE 17:03:31 10° E
Unknown 3.7 16:57:35 10° W 17:01:44 78° N 17:05:54 10° E
Cosmos 1953 2.7 16:58:46 10° SSW 17:02:50 72° WNW 17:06:55 10° N
Unknown 3.7 16:59:15 10° W 17:03:25 78° N 17:07:35 10° E
FALCON 9 DEB 4.1 17:00:20 10° W 17:03:42 47° SSW 17:07:04 10° SE
Unknown 3.7 17:00:52 10° W 17:05:03 78° N 17:09:14 10° E
Cosmos 1470 4.3 17:02:23 10° SW 17:06:10 41° WNW 17:09:57 10° N
Unknown 3.7 17:02:34 10° W 17:06:44 77° N 17:10:53 10° E
CENTAUR R/B 4.1 17:04:02 10° SE 17:06:53 14° ESE 17:09:54 10° ENE
Unknown 3.7 17:04:20 10° W 17:08:30 77° N 17:12:40 10° E
Cosmos 1242 Rocket 2.9 17:04:58 10° NNW 17:08:41 73° W 17:12:19 10° S
Cosmos 292 Rocket 3.8 17:04:22 10° SSW 17:09:04 67° ESE 17:13:49 10° NNE
Cosmos 2084 Rocket 3.5 17:05:43 10° NW 17:10:11 75° NE 17:14:35 10° SE
Unknown 3.7 17:07:36 10° W 17:11:46 77° N 17:15:55 10° E
Unknown 3.7 17:07:40 10° W 17:11:50 77° N 17:15:59 10° E
Unknown 3.7 17:09:15 10° W 17:13:25 77° N 17:17:30 10° E
SJ 16-02 2.7 17:12:38 10° N 17:15:57 20° NE 17:19:16 10° E
Unknown 3.7 17:12:29 10° W 17:16:40 77° N 17:20:36 11° E
Unknown 3.5 17:13:32 10° W 17:17:26 84° N 17:21:17 10° E
SMAP 3.8 17:15:16 10° S 17:19:51 58° W 17:24:28 10° NNW
Unknown 3.7 17:15:55 10° W 17:20:04 77° N 17:23:53 12° E
Cosmos 2058 Rocket 3.0 17:17:07 10° S 17:21:27 79° E 17:25:51 10° NNE
Unknown 3.7 17:17:34 10° W 17:21:44 77° N 17:25:28 13° E
Abrixas rocket 3.2 17:19:18 10° SW 17:22:06 33° SSE 17:24:36 12° ESE
Cosmos 1300 4.0 17:20:12 10° SE 17:23:01 20° E 17:25:51 10° NE
Unknown 4.3 17:19:42 10° W 17:23:04 42° SSW 17:26:24 10° SE
Unknown 3.7 17:19:14 10° W 17:23:24 77° N 17:27:05 13° E
COBE Rocket 4.1 17:18:51 10° NNE 17:23:55 54° E 17:28:51 10° S
Unknown 3.7 17:20:56 10° W 17:25:06 77° N 17:28:43 13° E
NOAA 12 4.2 17:21:21 10° SSE 17:26:40 84° WSW 17:32:02 10° NNW
Envisat 3.0 17:21:49 10° SSE 17:26:54 79° ENE 17:32:00 10° NNW
Cosmos 2227 Rocket 4.4 17:25:42 10° NNW 17:27:22 11° N 17:29:01 10° NNE
Cosmos 1328 4.3 17:24:08 10° NNW 17:28:05 63° W 17:31:59 10° S
Unknown 3.6 17:24:15 10° W 17:28:25 77° N 17:31:53 14° E
Unknown 3.6 17:25:59 10° W 17:30:08 78° N 17:33:32 15° E
COSMO-SKYMED 1 2.9 17:26:47 10° NNE 17:30:57 43° E 17:35:05 10° S
Unknown 3.6 17:27:33 10° W 17:31:43 78° N 17:35:03 15° E
Cosmos 2297 Rocket 4.4 17:30:26 10° NNW 17:32:00 11° N 17:33:34 10° NNE
Cosmos 1356 3.6 17:29:19 10° SSW 17:32:45 75° WNW 17:36:13 10° N
Cosmos 1898 Rocket 3.9 17:28:13 10° NNW 17:33:15 42° NE 17:38:17 10° SE
Unknown 3.6 17:29:09 10° W 17:33:19 78° N 17:36:35 16° E
H-2A R/B 4.0 17:30:02 10° S 17:33:49 46° W 17:37:38 10° NNW
CSL-04 Debris 4.2 17:28:34 10° SSE 17:33:56 61° ENE 17:39:21 10° N
Cosmos 2082 Rocket 2.2 17:28:40 10° NNW 17:34:26 88° ENE 17:40:08 10° SSE
Unknown 3.6 17:30:54 10° W 17:35:04 78° N 17:38:16 17° E
CZ-4 R/B 4.4 17:32:07 10° SSE 17:36:13 71° ENE 17:40:21 10° N
Unknown 3.6 17:32:23 10° W 17:36:33 78° N 17:39:41 17° E
CZ-2D R/B 3.9 17:34:36 10° SE 17:38:05 33° ENE 17:41:37 10° N
Cosmos 2058 3.5 17:34:47 10° N 17:38:43 36° ENE 17:42:36 10° SE
USA 238 DEB 3.9 17:32:31 10° SSW 17:38:55 50° ESE 17:45:34 10° NE
USA 238 3.9 17:32:38 10° SSW 17:39:02 49° ESE 17:45:39 10° NE
Unknown 3.6 17:35:40 10° W 17:39:50 78° N 17:42:50 18° E
Cosmos 1844 Rocket 3.9 17:35:34 10° WSW 17:40:52 40° NW 17:46:11 10° NNE
Unknown 3.6 17:37:21 10° W 17:41:31 78° N 17:44:27 19° E
H-2A R/B 3.6 17:40:42 15° E 17:42:42 19° NE 17:46:21 10° N
Unknown 3.5 17:39:14 10° W 17:43:18 83° N 17:46:07 19° E
Unknown 3.7 17:39:39 10° WNW 17:43:21 63° SSW 17:46:21 15° ESE
Unknown 3.6 17:39:13 10° W 17:43:22 79° N 17:46:15 19° E
Cosmos 1459 Rocket 4.3 17:38:18 10° N 17:44:15 44° ENE 17:50:16 10° SE
Unknown 3.6 17:40:44 10° W 17:44:54 79° N 17:47:41 20° E
Cosmos 1076 Rocket 3.6 17:40:51 10° N 17:45:10 54° ENE 17:49:25 10° SSE
Unknown 3.6 17:42:22 10° W 17:46:32 79° N 17:49:16 21° E
Cosmos 1339 Rocket 4.4 17:40:38 10° S 17:46:43 75° E 17:52:55 10° NNE
Unknown 3.6 17:45:42 10° W 17:49:51 80° N 17:52:28 22° E
Unknown 3.6 17:47:20 10° W 17:51:30 80° N 17:54:02 23° E
Cosmos 1939 Rocket 3.2 17:48:26 10° SE 17:52:15 42° ENE 17:56:09 10° N
Okean-O 4.0 17:48:06 10° S 17:52:19 42° W 17:56:33 10° NNW
Cosmos 1726 3.2 17:49:05 10° SSW 17:52:37 47° WNW 17:56:11 10° N
Unknown 3.6 17:49:00 10° W 17:53:10 80° N 17:55:37 24° E
Unknown 3.6 17:50:43 10° W 17:54:52 81° N 17:57:16 24° E
SKYMED 3 4.5 17:50:38 10° NNE 17:55:00 72° ESE 17:59:20 10° S
Unknown 3.5 17:51:54 10° W 17:56:00 83° N 17:58:19 25° E
In-Cosmos 22 Rocket 4.3 17:51:03 10° N 17:56:20 51° ENE 18:01:42 10° SSE
ATLAS 5 CENTAUR R/B 3.3 17:53:05 10° W 17:57:11 29° NNW 18:01:48 10° NE
Cosmos 2061 Rocket 4.3 17:51:58 10° N 17:57:53 42° ENE 18:03:42 10° SE
Unknown 3.6 17:54:02 10° W 17:58:12 82° N 18:00:27 26° E
Cosmos 1605 Rocket 4.4 17:52:55 10° NNW 17:59:03 68° W 18:05:06 10° S
Unknown 3.6 17:54:55 10° W 17:59:05 82° N 18:01:18 27° E
Unknown 3.6 17:55:44 10° W 17:59:54 84° NNE 18:02:06 27° E
NOSS 3-2 (A) 3.6 17:55:01 10° SSW 18:00:41 54° SE 18:06:32 13° NE
Cosmos 2151 3.7 17:56:53 10° N 18:00:48 32° ENE 18:02:29 24° ESE
Unknown 3.6 17:57:35 10° W 18:01:46 84° NNE 18:03:53 28° E
Okean 3 Rocket 4.0 17:58:01 10° N 18:02:20 41° ENE 18:05:52 14° SE
Unknown 3.6 18:00:43 10° W 18:04:53 83° NNE 18:06:52 30° E
Unknown 3.5 18:04:02 10° W 18:08:12 85° N 18:10:03 32° E
Ariane Rocket 3.0 18:04:34 10° SSE 18:09:34 59° ENE 18:14:37 10° N
Unknown 3.5 18:05:39 10° W 18:09:49 85° N 18:11:36 33° E
Cosmos 1812 Rocket 3.5 18:05:52 10° S 18:10:19 77° E 18:14:49 10° NNE
ADEOS Rocket 4.3 18:04:49 10° NNE 18:10:50 25° E 18:13:06 21° ESE
Unknown 3.5 18:07:21 10° W 18:11:31 86° NNE 18:13:14 34° E
Meteor 2-1 Rocket 4.4 18:06:46 10° SSE 18:12:01 47° E 18:17:23 10° NNE
Cosmos 468 Rocket 4.5 18:07:19 10° SSE 18:12:06 36° ESE 18:15:41 16° NE
Cosmos 1908 4.4 18:08:44 10° SSW 18:12:29 45° WNW 18:16:15 10° N
Unknown 3.5 18:08:57 10° WNW 18:13:07 86° NNE 18:14:46 36° E
HJ-1C 3.7 18:13:18 42° E 18:13:34 43° ENE 18:16:48 10° N
ASTEX 1 4.2 18:09:28 10° N 18:14:20 55° WNW 18:19:11 10° SSW
Resurs 01 Rocket 3.7 18:15:51 13° NE 18:15:51 13° NE 18:16:56 10° NNE
Cosmos 2173 Rocket 3.9 18:08:58 10° N 18:15:14 70° ENE 18:21:22 10° SSE
Cosmos 1727 Rocket 3.9 18:10:46 10° S 18:16:56 85° E 18:23:10 10° N
Cosmos 2278 Rocket 2.5 18:12:15 10° SW 18:17:53 68° NW 18:23:36 10° NNE
YAOGAN 6 3.8 18:14:29 10° S 18:17:57 43° W 18:21:25 10° NNW
Cosmos 990 Rocket 3.9 18:13:46 10° NNW 18:19:00 81° ENE 18:23:48 13° SSE
SKYMED 2 3.9 18:14:46 10° N 18:19:07 69° WNW 18:23:25 10° SSW
deb Kosmos-1763 4.3 18:15:34 10° NNW 18:19:12 49° ENE 18:19:42 45° E
Lacrosse 5 3.7 18:15:23 10° WNW 18:19:41 28° SW 18:23:58 10° S
Unknown 3.5 18:15:40 10° WNW 18:19:50 89° N 18:21:13 41° ESE
YAOGAN 1 3.2 18:16:50 10° S 18:21:05 58° W 18:25:23 10° NNW
Unknown 3.5 18:17:20 10° WNW 18:21:30 90° NNE 18:22:50 43° ESE
Cosmos 1937 Rocket 3.4 18:16:44 10° NNW 18:21:53 68° ENE 18:25:12 22° SE
CSL-04 Rocket 4.2 18:17:40 10° S 18:23:07 62° WSW 18:28:33 10° NNW
Unknown 3.5 18:19:00 10° WNW 18:23:10 90° S 18:24:25 44° ESE
Cosmos 2297 3.8 18:18:36 10° S 18:24:09 55° ESE 18:29:18 12° NE
Cosmos 858 Rocket 4.4 18:18:56 10° NNW 18:24:10 74° ENE 18:27:44 21° SE
Unknown 3.5 18:20:38 10° WNW 18:24:48 89° SSW 18:25:59 46° ESE
Unknown 3.5 18:22:19 10° WNW 18:26:29 88° S 18:27:36 48° ESE
Unknown 4.0 18:23:00 10° WNW 18:26:44 50° SSW 18:27:57 35° SSE
BREEZE-M DEB (TANK) 3.4 18:19:13 10° SW 18:27:19 38° SSE 18:28:17 33° SE
CZ-4 R/B 2.9 18:23:22 10° SSW 18:27:20 39° W 18:31:21 10° NNW
NOSS 3-2 (C) 3.5 18:22:07 10° SSW 18:27:49 55° SE 18:31:44 24° ENE
Cosmos 1825 4.3 18:24:58 10° NNE 18:25:54 15° NNE 18:25:54 15° NNE
ARGOS 3.8 18:27:50 33° ENE 18:28:34 34° ENE 18:33:25 10° N
Cosmos 1802 Rocket 4.0 18:23:18 10° N 18:29:47 74° ENE 18:36:10 10° SSE
Unknown 3.5 18:25:38 10° WNW 18:29:48 86° SSW 18:30:47 51° ESE
SJ-11-01 4.4 18:28:54 38° ESE 18:30:13 50° ENE 18:34:45 10° N
Starlink (trailer) 3.5 18:27:17 10° WNW 18:31:27 86° SSW 18:32:23 53° ESE
Unknown 3.5 18:28:59 10° WNW 18:33:08 85° SSW 18:34:00 55° ESE
Cosmos 2123 Rocket 4.3 18:27:27 10° SSE 18:33:17 42° E 18:39:06 10° NNE
USA 116 3.6 18:31:07 10° N 18:34:20 67° WNW 18:37:50 10° SSW
Cosmos 1570 Rocket 4.4 18:29:45 10° S 18:34:43 40° ESE 18:34:59 40° E
Unknown 3.5 18:30:41 10° WNW 18:34:50 84° SSW 18:35:38 57° ESE
SJ-6B 4.2 18:36:45 24° NNE 18:36:45 24° NNE 18:38:38 10° N
ATLAS CENTAUR R/B 2.4 18:31:31 10° NW 18:35:44 34° NNE 18:36:02 33° NE
Cosmos 2233 Rocket 4.4 18:30:05 10° N 18:36:00 40° ENE 18:37:22 36° E
Cosmos 1892 2.5 18:33:41 10° N 18:37:30 69° ENE 18:37:37 69° E
Cosmos 1000 Rocket 4.4 18:32:48 10° S 18:38:58 71° E 18:45:15 10° NNE
Cosmos 1725 Rocket 4.0 18:33:31 10° N 18:39:46 61° ENE 18:43:50 22° SSE
Unknown 3.5 18:35:38 10° WNW 18:39:48 81° SSW 18:40:24 63° SE
Cosmos 372 Rocket 4.3 18:36:08 10° NNW 18:41:05 44° ENE 18:41:29 43° ENE
Unknown 3.5 18:37:16 10° WNW 18:41:25 80° SSW 18:41:58 65° SE
Cosmos-2242 2.9 18:37:13 10° S 18:41:30 62° E 18:45:47 10° NNE
Unknown 3.5 18:38:56 10° WNW 18:43:06 79° SSW 18:43:34 67° SE
Cosmos 44 3.1 18:39:26 10° SSW 18:44:17 70° SE 18:45:15 53° ENE
Unknown 3.5 18:40:33 10° WNW 18:44:44 78° SSW 18:45:10 68° SE
SL-27 R/B 2.9 18:42:31 10° NNW 18:45:03 49° NNW 18:45:03 49° NNW
Cosmos 2100 Rocket 4.2 18:39:50 10° NNW 18:46:01 71° W 18:52:06 10° S
Unknown 3.5 18:42:14 10° WNW 18:46:24 77° SSW 18:46:45 71° SSE
Cosmos 1763 Rocket 3.5 18:41:29 10° S 18:46:37 53° ESE 18:47:27 48° ENE
CZ-2C R/B 3.9 18:48:12 36° ENE 18:48:12 36° ENE 18:53:14 10° N
Unknown 3.5 18:44:01 10° WNW 18:48:10 75° SSW 18:48:27 71° SSE
ATLAS 3B R/B 2.6 18:43:48 10° SSW 18:50:19 55° SE 18:52:29 39° ENE
Unknown 3.5 18:47:16 10° WNW 18:51:25 74° SSW 18:51:34 73° S
Unknown 3.6 18:47:20 10° WNW 18:51:29 73° SSW 18:51:38 72° S
BREEZE-M DEB (TANK) 4.1 18:49:23 10° SW 18:51:05 22° SW 18:51:05 22° SW
Unknown 3.6 18:48:55 10° WNW 18:53:05 73° SSW 18:53:09 73° S
Cosmos 2298 Rocket 4.0 18:48:43 10° NNW 18:54:00 63° ENE 18:54:40 58° E
SJ 16-02 1.6 18:50:38 10° NNW 18:55:00 67° WSW 18:56:28 40° S
CENTAUR R/B 2.5 18:49:55 10° SSW 18:55:53 61° SE 18:58:23 39° ENE
Unknown 4.3 18:52:15 10° W 18:55:56 41° SSW 18:56:04 41° SSW
Unknown 3.6 18:52:10 10° WNW 18:56:16 72° SSW 18:56:16 72° SSW
Abrixas rocket 4.0 18:54:46 10° WSW 18:56:26 26° WSW 18:56:26 26° WSW
Cosmos 1300 4.0 18:54:48 10° SW 18:58:26 41° WNW 19:02:05 10° N
Unknown 3.7 18:55:35 10° WNW 18:59:33 68° SW 18:59:33 68° SW
Cosmos 1833 4.5 18:54:47 10° NNW 19:00:14 47° NE 19:00:23 47° NE
Cosmos 2016 Rocket 4.0 18:54:15 10° NNW 19:00:34 84° W 19:06:56 10° S
Unknown 3.8 18:57:13 10° WNW 19:01:07 66° SW 19:01:07 66° SW
Unknown 3.8 18:58:54 10° WNW 19:02:44 64° SW 19:02:44 64° SW
Unknown 3.9 19:00:35 10° WNW 19:04:22 62° SW 19:04:22 62° SW
SPOT 3 Rocket 3.4 19:05:59 69° ESE 19:06:21 73° ENE 19:11:35 10° NNW
Cosmos 1408 4.5 19:02:49 10° N 19:04:20 23° N 19:04:20 23° N
Unknown 4.0 19:03:55 10° WNW 19:07:32 58° WSW 19:07:32 58° WSW
Meteor 2-3 Rocket 3.9 19:02:43 10° N 19:07:59 52° NE 19:07:59 52° NE
Unknown 4.1 19:05:38 10° WNW 19:09:12 56° WSW 19:09:12 56° WSW
SL-08 R/B 4.4 19:03:57 10° NNW 19:10:05 83° W 19:13:56 24° S
Unknown 4.2 19:07:12 10° WNW 19:10:42 54° WSW 19:10:42 54° WSW
Unknown 4.2 19:08:48 10° WNW 19:12:14 52° WSW 19:12:14 52° WSW
Cosmos 2227 Rocket 4.1 19:10:32 10° NNW 19:14:03 16° NNE 19:14:09 16° NNE
Unknown 4.3 19:10:33 10° WNW 19:13:55 50° WSW 19:13:55 50° WSW
Unknown 4.4 19:12:02 10° WNW 19:15:20 50° WSW 19:15:20 50° WSW
Cosmos 2297 Rocket 4.0 19:14:55 10° NNW 19:18:26 17° NNE 19:18:26 17° NNE
H-2A R/B 2.0 19:21:20 83° ENE 19:21:21 83° ENE 19:26:51 10° NNW
Cosmos 1766 Rocket 4.5 19:19:12 10° NNW 19:23:21 45° W 19:24:13 40° SW
Cosmos 1943 Rocket 4.4 19:20:28 10° S 19:20:37 11° S 19:20:37 11° S
USA 238 DEB 4.2 19:23:12 10° WSW 19:29:52 57° NNW 19:33:36 28° NE
USA 238 4.2 19:23:18 10° WSW 19:29:58 58° NNW 19:33:40 28° NE
Cosmos 1125 Rocket 4.2 19:34:25 10° NNW 19:38:14 47° N 19:38:14 47° N
Timation 2 Rocket 4.2 19:34:42 10° NNW 19:39:40 52° NNE 19:39:40 52° NNE
ATLAS 5 CENTAUR R/B 3.6 19:39:11 10° NW 19:43:19 25° N 19:43:20 25° N
Resurs 01 Rocket 3.8 19:53:26 20° NNW 19:53:26 20° NNW 19:54:53 10° NNW
NOSS 3-2 (A) 4.2 19:45:45 10° WSW 19:51:41 51° NNW 19:53:56 37° NNE
ADEOS Rocket 3.4 19:49:33 10° NNE 19:57:17 87° WNW 19:59:59 44° SSW
Cosmos 1238 Rocket 4.1 19:51:58 10° NNW 19:58:18 71° WNW 19:58:18 71° WNW
Cosmos 2278 Rocket 4.4 19:58:52 10° W 20:03:05 21° NNW 20:07:19 10° NNE
ARGOS 4.1 20:09:22 46° WNW 20:09:22 46° WNW 20:13:58 10° NNW
ATLAS CENTAUR R/B 3.9 20:10:34 10° NW 20:12:14 21° NW 20:12:14 21° NW
NOSS 3-2 (C) 4.2 20:12:56 10° WSW 20:18:52 51° NNW 20:19:12 50° NNW
CZ-2C R/B 4.4 20:29:17 40° WNW 20:29:17 40° WNW 20:33:22 10° NNW
ATLAS 3B R/B 3.5 20:34:37 10° WSW 20:39:46 45° WNW 20:39:46 45° WNW
CENTAUR R/B 3.5 20:40:36 10° WSW 20:45:37 45° WNW 20:45:37 45° WNW
Cosmos 2227 Rocket 4.4 20:54:09 10° NNW 20:55:57 20° NNW 20:55:57 20° NNW
H-2A R/B 4.5 21:01:58 18° W 21:01:58 18° W 21:05:12 10° NW
Cosmos 2297 Rocket 4.4 20:58:32 10° NNW 21:00:14 20° NNW 21:00:14 20° NNW
